Location: Aulnoy
(48.8410°N, 3.0967°E)
Time: 15:45:50
(UTC+00:00)

Envisat - Pass Details

Date: 03 March 2024
Orbit: 762 x 764 km, 98.3° (Epoch: 22 April)

Event Time Altitude Azimuth Distance (km) Brightness Sun altitude
Rises 04:03:55 0° 9° (N) 3,244 6.6 -23.8°
Reaches altitude 10° 04:06:19 10° 3° (N) 2,313 5.7 -23.4°
Enters shadow 04:10:46 43° 304° (NW) 1,072 3.4 -22.7°
